Lid_Strength_Index
8 9 9 8 6 4 -0 -0 -0 -0 -0 -0 -0 0 -0 -0 -1 -1 -1 -0 -1 -2 -2 -1 -1 -1 -2 -1 -1 -1 -2 -2 -2 -2 -2 -2 -1 -1 -2 -2 -2 -2 -2
8 8 9 9 8 5 2 -0 -0 0 0 -0 0 0 0 -0 -1 -1 -1 -1 -1 -2 -3 -1 -1 -1 -2 -1 -1 -1 -2 -2 -2 -2 -2 -2 -2 -1 -2 -2 -2 -2 -2
9 8 7 9 9 8 6 -0 -0 -0 0 0 0 0 -0 0 -0 -0 -1 -1 -1 -1 -2 -2 -2 -2 -1 -1 -1 -1 -2 -2 -2 -2 -2 -2 -2 -1 -2 -2 -2 -2 -2
9 8 7 6 8 8 6 3 0 1 1 1 1 1 1 0 -0 -0 -1 -1 -1 -0 -1 -2 -2 -2 -2 -2 -2 -1 -2 -2 -2 -2 -2 -1 -2 -2 -2 -2 -2 -2 -2
8 9 8 8 8 10 8 6 1 1 1 1 1 1 1 1 0 -0 -0 -1 -1 -0 -0 -1 -1 -1 -2 -2 -2 -2 -2 -2 -2 -1 -1 -2 -2 -2 -2 -2 -2 -2 -2
9 9 9 8 8 9 11 8 4 1 1 1 1 2 1 1 1 0 -0 -0 -1 -1 -1 -1 -1 -0 -1 -2 -2 -2 -2 -2 -2 -2 -1 -1 -2 -2 -2 -2 -2 -2 -2
11 10 9 9 8 8 12 11 8 2 2 1 2 3 3 1 1 1 -0 -0 -0 -1 -1 -1 -1 -0 -1 -1 -2 -2 -2 -2 -2 -2 -2 -1 -2 -2 -2 -2 -2 -2 -2
11 11 10 9 8 8 10 10 9 6 2 1 3 3 5 4 2 1 0 0 0 -0 -0 -1 -1 -1 -1 -1 -1 -1 -2 -2 -2 -2 -2 -2 -2 -2 -2 -2 -2 -2 -2
11 11 11 10 9 8 10 11 10 8 3 2 2 3 6 7 4 2 1 1 1 0 0 0 -0 -0 -0 -1 -1 -1 -1 -2 -2 -2 -2 -2 -2 -2 -2 -2 -2 -2 -2
12 12 11 11 10 9 9 12 10 9 2 3 2 2 3 4 6 6 2 1 1 1 1 1 1 -0 -1 -0 0 1 0 -1 -2 -2 -2 -2 -2 -2 -2 -2 -1 -1 -1
13 12 12 11 11 10 10 11 11 11 7 2 2 3 3 4 4 5 6 4 2 1 0 1 1 0 -1 -0 -0 1 1 -1 -2 -2 -2 -2 -1 -2 -2 -1 -2 -1 -0
12 11 11 11 11 10 10 10 10 8 9 3 2 2 3 4 5 5 5 4 4 2 1 0 1 1 -1 -1 1 2 1 -0 -2 -2 -1 -2 -1 -2 -2 -2 -1 -1 -1
12 12 11 11 11 10 9 9 10 9 8 6 2 2 2 3 4 3 4 4 4 2 2 1 1 1 -0 -1 0 3 2 1 -0 -2 -2 -2 -2 -2 -2 -2 -1 -1 -1
11 11 11 12 11 10 9 9 9 10 9 8 2 2 2 2 3 3 4 5 5 4 3 2 1 1 1 -1 0 4 1 2 1 -0 -2 -1 -2 -1 -1 -2 -2 -1 -1
10 10 11 11 11 11 10 9 11 9 9 9 1 1 2 2 2 2 2 3 5 6 5 3 2 1 1 1 1 1 1 3 2 1 0 0 0 0 -0 -0 -1 -1 -1
10 10 10 11 10 10 10 8 11 9 9 8 1 2 2 2 2 2 2 3 3 3 5 2 2 1 1 1 2 -0 1 4 3 2 2 2 2 1 1 1 1 1 0
9 10 10 10 10 10 9 9 9 9 7 9 2 2 2 2 3 3 3 3 3 2 4 3 1 1 1 2 2 1 1 1 2 3 2 2 2 2 2 2 2 1 1
9 9 9 10 10 10 9 10 10 9 8 8 2 2 2 2 3 3 3 3 2 2 3 4 2 2 2 1 2 2 1 0 1 3 3 3 2 2 2 2 2 2 2
9 9 9 9 10 10 9 9 9 9 9 6 2 3 3 3 3 3 4 3 2 2 2 3 3 2 2 2 2 2 2 2 1 4 3 3 3 3 3 3 3 3 3
9 8 8 8 9 8 8 8 8 8 7 2 2 2 2 2 3 4 4 3 2 3 3 4 4 3 3 2 2 3 3 3 3 2 3 3 3 3 3 3 3 4 4
10 9 8 8 6 5 7 8 7 6 2 2 2 2 1 2 5 4 3 4 3 3 2 3 4 4 4 4 4 3 4 3 3 2 2 2 2 2 3 4 4 5 5
10 10 10 9 8 7 8 8 7 2 2 2 3 2 1 5 6 5 6 6 4 2 3 3 4 5 4 4 3 3 3 4 5 2 3 3 2 3 2 2 3 4 5
12 12 11 11 10 10 9 8 5 2 2 2 3 2 2 3 4 4 6 7 7 5 3 2 3 3 4 3 3 3 3 4 4 3 3 4 2 3 2 2 4 4 4
14 13 13 12 13 12 10 9 8 6 2 2 2 2 3 4 4 4 4 5 4 4 4 3 2 2 3 2 2 2 3 3 3 3 2 5 3 3 2 2 4 4 4
14 14 14 13 14 13 10 11 11 9 9 9 8 9 3 3 6 7 5 5 5 5 6 6 5 5 5 4 3 2 4 4 5 5 3 4 4 3 3 3 2 5 4
14 15 14 14 13 14 11 11 12 13 12 12 11 12 11 10 9 7 5 5 6 6 5 6 5 6 6 5 5 2 3 4 5 5 4 4 5 4 5 3 2 3 3